Location: Nachod
(50.4170°N, 16.1670°E)
Time: 10:22:50
(UTC+02:00)

ISS - Pass Details

Date: 29 March 2019
Orbit: 408 x 410 km, 51.6° (Epoch: 21 April)

Event Time Altitude Azimuth Distance (km) Brightness Sun altitude
Rises 21:41:32 0° 286° (WNW) 2,338 0.8 -28.4°
Reaches altitude 10° 21:43:39 10° 282° (WNW) 1,475 -0.4 -28.6°
Enters shadow 21:43:56 12° 281° (WNW) 1,359 -0.6 -28.7°
